GW2980 Weather Reports


time (UTC)temp
C
wind
direction
speed
KPH
gust
KPH
rain 1hr
cm
rain 24hr
cm
rain mn
cm
humidity
%
barometer
mb
20260507070036 12 0.0 0.0 0.00 0.00 0.00 71 946.0
20260507065736 11 0.0 0.0 0.00 0.00 0.00 72 946.6
20260507065135 11 0.0 0.0 0.00 0.00 0.00 73 946.0
20260507064835 11 0.0 0.0 0.00 0.00 0.00 73 946.0
20260507064536 11 0.0 0.0 0.00 0.00 0.00 73 946.0
20260507064235 11 0.0 0.0 0.00 0.00 0.00 73 946.0
20260507063936 11 0.0 0.0 0.00 0.00 0.00 75 946.0
20260507063636 10 0.0 0.0 0.00 0.00 0.00 75 946.0
20260507063336 10 0.0 0.0 0.00 0.00 0.00 75 946.0
20260507063036 10 0.0 0.0 0.00 0.00 0.00 75 946.0
20260507062736 11 0.0 0.0 0.00 0.00 0.00 73 946.0
20260507062436 11 0.0 0.0 0.00 0.00 0.00 72 946.0
20260507061236 11 0.0 0.0 0.00 0.00 0.00 74 946.0
20260507060636 10 0.0 0.0 0.00 0.00 0.00 75 946.0
20260507060336 10 0.0 0.0 0.00 0.00 0.00 75 946.0
20260507060035 10 0.0 0.0 0.00 0.00 0.00 75 946.0
20260507055736 10 0.0 0.0 0.00 0.00 0.00 75 946.0
20260507055436 10 0.0 0.0 0.00 0.00 0.00 76 946.0
20260507055136 10 0.0 0.0 0.00 0.00 0.00 76 946.0
20260507054835 10 0.0 0.0 0.00 0.00 0.00 76 946.0
20260507054535 10 0.0 0.0 0.00 0.00 0.00 76 946.0
20260507054236 10 0.0 0.0 0.00 0.00 0.00 76 946.0
20260507053935 10 0.0 0.0 0.00 0.00 0.00 75 946.0
20260507053635 10 0.0 0.0 0.00 0.00 0.00 75 946.0
20260507053336 10 0.0 0.0 0.00 0.00 0.00 75 946.0
20260507053035 10 0.0 0.0 0.00 0.00 0.00 75 946.0
20260507052735 10 0.0 0.0 0.00 0.00 0.00 75 946.8
20260507052435 10 0.0 0.0 0.00 0.00 0.00 75 946.8
20260507052136 10 0.0 0.0 0.00 0.00 0.00 75 946.8
20260507051536 10 0.0 0.0 0.00 0.00 0.00 75 946.8
20260507051236 10 0.0 0.0 0.00 0.00 0.00 75 946.8
20260507050635 10 0.0 0.0 0.00 0.00 0.00 75 946.8
20260507050336 10 0.0 0.0 0.00 0.00 0.00 76 946.0
20260507050036 10 0.0 0.0 0.00 0.00 0.00 76 946.0
20260507045736 10 0.0 0.0 0.00 0.00 0.00 76 946.0
20260507045435 10 0.0 0.0 0.00 0.00 0.00 76 946.0
20260507045136 10 0.0 0.0 0.00 0.00 0.00 76 946.0
20260507044836 10 0.0 0.0 0.00 0.00 0.00 76 946.0
20260507044535 10 0.0 0.0 0.00 0.00 0.00 76 946.0
20260507044236 10 0.0 0.0 0.00 0.00 0.00 73 946.6
20260507043935 10 0.0 0.0 0.00 0.00 0.00 73 946.6
20260507043636 10 0.0 0.0 0.00 0.00 0.00 73 946.6
20260507043335 10 0.0 0.0 0.00 0.00 0.00 73 946.6
20260507043036 10 0.0 0.0 0.00 0.00 0.00 73 946.6
20260507042736 10 0.0 0.0 0.00 0.00 0.00 73 946.6
20260507042436 10 0.0 0.0 0.00 0.00 0.00 73 946.6
20260507042135 10 0.0 0.0 0.00 0.00 0.00 73 946.6
20260507041836 10 0.0 0.0 0.00 0.00 0.00 73 946.6
20260507041536 10 0.0 0.0 0.00 0.00 0.00 73 946.6
20260507041236 10 0.0 0.0 0.00 0.00 0.00 73 946.6
20260507040936 10 0.0 0.0 0.00 0.00 0.00 72 946.0
20260507040636 10 0.0 0.0 0.00 0.00 0.00 72 946.0
20260507035735 10 0.0 0.0 0.00 0.00 0.00 72 946.0
20260507035436 10 0.0 0.0 0.00 0.00 0.00 72 946.0
20260507035136 10 0.0 0.0 0.00 0.00 0.00 72 946.0
20260507034535 11 0.0 0.0 0.00 0.00 0.00 70 946.0
20260507033935 11 0.0 0.0 0.00 0.00 0.00 70 946.0
20260507033335 11 0.0 0.0 0.00 0.00 0.00 70 946.0
20260507033036 11 0.0 0.0 0.00 0.00 0.00 70 946.0
20260507032735 11 0.0 0.0 0.00 0.00 0.00 70 946.0
20260507032436 11 0.0 0.0 0.00 0.00 0.00 70 946.0
20260507032136 11 0.0 0.0 0.00 0.00 0.00 70 946.5
20260507031836 11 0.0 0.0 0.00 0.00 0.00 70 946.5
20260507031536 11 0.0 0.0 0.00 0.00 0.00 70 946.5
20260507031236 11 0.0 0.0 0.00 0.00 0.00 70 946.5
20260507030636 11 0.0 0.0 0.00 0.00 0.00 70 946.0
20260507030336 11 0.0 0.0 0.00 0.00 0.00 70 946.0
20260507030035 11 0.0 0.0 0.00 0.00 0.00 70 946.0
20260507025736 11 0.0 0.0 0.00 0.00 0.00 70 946.0
20260507025436 11 0.0 0.0 0.00 0.00 0.00 70 946.0
20260507025135 11 0.0 0.0 0.00 0.00 0.00 70 946.0
20260507024836 11 0.0 0.0 0.00 0.00 0.00 70 946.0
20260507024536 11 0.0 0.0 0.00 0.00 0.00 70 946.0
20260507024236 11 0.0 0.0 0.00 0.00 0.00 70 946.0
20260507023936 11 0.0 0.0 0.00 0.00 0.00 70 946.0
20260507023636 11 0.0 0.0 0.00 0.00 0.00 70 946.0
20260507023036 11 0.0 0.0 0.00 0.00 0.00 70 946.0
20260507022736 11 0.0 0.0 0.00 0.00 0.00 70 946.0
20260507022436 12 0.0 0.0 0.00 0.00 0.00 69 946.6
20260507022136 12 0.0 0.0 0.00 0.00 0.00 69 946.6
20260507021836 12 0.0 0.0 0.00 0.00 0.00 69 946.6
20260507021536 12 0.0 0.0 0.00 0.00 0.00 69 946.0
20260507021236 12 0.0 0.0 0.00 0.00 0.00 69 946.0
20260507020636 12 0.0 0.0 0.00 0.00 0.00 68 946.8
20260507020336 12 0.0 0.0 0.00 0.00 0.00 68 946.8
20260507015436 12 0.0 0.0 0.00 0.00 0.00 68 946.8
20260507015136 12 0.0 0.0 0.00 0.00 0.00 68 946.8
20260507014835 12 0.0 0.0 0.00 0.00 0.00 68 946.8
20260507014536 12 0.0 0.0 0.00 0.00 0.00 68 946.8
20260507014236 12 0.0 0.0 0.00 0.00 0.00 68 946.8
20260507013936 12 0.0 0.0 0.00 0.00 0.00 68 946.8
20260507013635 12 0.0 0.0 0.00 0.00 0.00 68 946.8
20260507013335 12 0.0 0.0 0.00 0.00 0.00 68 946.8
20260507012736 12 0.0 0.0 0.00 0.00 0.00 68 946.0
20260507012435 12 0.0 0.0 0.00 0.00 0.00 68 946.0
20260507012135 12 0.0 0.0 0.00 0.00 0.00 68 946.0
20260507011835 12 0.0 0.0 0.00 0.00 0.00 67 947.0
20260507011535 12 0.0 0.0 0.00 0.00 0.00 67 947.0
20260507010936 12 0.0 0.0 0.00 0.00 0.00 67 947.0
20260507010636 12 0.0 0.0 0.00 0.00 0.00 67 947.0
20260507010336 12 0.0 0.0 0.00 0.00 0.00 67 947.0
20260507010036 12 0.0 0.0 0.00 0.00 0.00 67 947.0
20260507005736 12 0.0 0.0 0.00 0.00 0.00 67 947.0
20260507005435 12 0.0 0.0 0.00 0.00 0.00 67 947.0
20260507005135 12 0.0 0.0 0.00 0.00 0.00 67 947.0
20260507004836 12 0.0 0.0 0.00 0.00 0.00 67 947.0
20260507004536 12 0.0 0.0 0.00 0.00 0.00 67 947.0
20260507004236 12 0.0 0.0 0.00 0.00 0.00 66 947.1
20260507003936 12 0.0 0.0 0.00 0.00 0.00 66 947.1
20260507003636 12 0.0 0.0 0.00 0.00 0.00 65 947.0
20260507003335 12 0.0 0.0 0.00 0.00 0.00 65 947.0
20260507003036 12 0.0 0.0 0.00 0.00 0.00 65 947.0
20260507002736 12 0.0 0.0 0.00 0.00 0.00 65 947.0
20260507002436 12 0.0 0.0 0.00 0.00 0.00 62 947.4
20260507002135 12 0.0 0.0 0.00 0.00 0.00 62 947.4
20260507001836 12 0.0 0.0 0.00 0.00 0.00 62 947.4
20260507001536 12 0.0 0.0 0.00 0.00 0.00 62 947.4
20260507001236 12 0.0 0.0 0.00 0.00 0.00 62 947.4
20260507000936 12 0.0 0.0 0.00 0.00 0.00 62 947.4
20260507000635 12 0.0 0.0 0.00 0.00 0.00 62 947.4
20260507000336 12 0.0 0.0 0.00 0.00 0.00 62 947.4
20260506235736 12 0.0 0.0 0.00 0.00 0.00 62 947.4
20260506235436 12 0.0 0.0 0.00 0.00 0.00 62 947.4
20260506235135 12 0.0 0.0 0.00 0.00 0.00 62 947.4
20260506234535 12 0.0 0.0 0.00 0.00 0.00 62 947.4
20260506234236 12 0.0 0.0 0.00 0.00 0.00 62 947.4
20260506233935 12 0.0 0.0 0.00 0.00 0.00 60 947.3
20260506233635 12 0.0 0.0 0.00 0.00 0.00 60 947.3
20260506233335 12 0.0 0.0 0.00 0.00 0.00 60 947.3
20260506233036 12 0.0 0.0 0.00 0.00 0.00 60 947.3
20260506232435 12 0.0 0.0 0.00 0.00 0.00 60 947.3
20260506232136 12 0.0 0.0 0.00 0.00 0.00 60 947.3
20260506231836 12 0.0 0.0 0.00 0.00 0.00 60 947.3
20260506231535 12 0.0 0.0 0.00 0.00 0.00 60 947.3
20260506231235 12 0.0 0.0 0.00 0.00 0.00 60 947.3
20260506230936 12 0.0 0.0 0.00 0.00 0.00 60 947.3
20260506230336 12 0.0 0.0 0.00 0.00 0.00 60 947.3
20260506230036 12 0.0 0.0 0.00 0.00 0.00 60 947.3
20260506225736 12 0.0 0.0 0.00 0.00 0.00 60 947.3
20260506225136 12 0.0 0.0 0.00 0.00 0.00 60 947.3
20260506224835 12 0.0 0.0 0.00 0.00 0.00 60 947.0
20260506224536 12 0.0 0.0 0.00 0.00 0.00 60 947.0
20260506224236 12 0.0 0.0 0.00 0.00 0.00 60 947.0
20260506223936 13 0.0 0.0 0.00 0.00 0.00 56 947.4
20260506223636 13 0.0 0.0 0.00 0.00 0.00 56 947.4
20260506222436 13 0.0 0.0 0.00 0.00 0.00 56 947.4
20260506222136 13 0.0 0.0 0.00 0.00 0.00 56 947.4
20260506221836 13 0.0 0.0 0.00 0.00 0.00 56 947.4
20260506221536 13 0.0 0.0 0.00 0.00 0.00 56 947.4
20260506221236 13 0.0 0.0 0.00 0.00 0.00 56 947.4
20260506220935 13 0.0 0.0 0.00 0.00 0.00 56 947.4
20260506220635 13 0.0 0.0 0.00 0.00 0.00 56 947.4
20260506220336 13 0.0 0.0 0.00 0.00 0.00 56 947.4
20260506220036 13 0.0 0.0 0.00 0.00 0.00 56 947.4
20260506215736 13 0.0 0.0 0.00 0.00 0.00 56 947.4
20260506215435 13 0.0 0.0 0.00 0.00 0.00 56 947.4
20260506215136 13 0.0 0.0 0.00 0.00 0.00 56 947.4
20260506214536 13 0.0 0.0 0.00 0.00 0.00 56 947.0
20260506214235 13 0.0 0.0 0.00 0.00 0.00 53 947.0
20260506213936 13 0.0 0.0 0.00 0.00 0.00 53 947.0
20260506213636 13 0.0 0.0 0.00 0.00 0.00 53 947.0
20260506213336 13 0.0 0.0 0.00 0.00 0.00 53 947.0
20260506213036 13 0.0 0.0 0.00 0.00 0.00 53 947.0
20260506212736 13 0.0 0.0 0.00 0.00 0.00 53 947.0
20260506212136 13 0.0 0.0 0.00 0.00 0.00 53 947.0
20260506211836 13 0.0 0.0 0.00 0.00 0.00 55 947.0
20260506211536 13 0.0 0.0 0.00 0.00 0.00 55 947.0
20260506211235 13 0.0 0.0 0.00 0.00 0.00 55 947.0
20260506210936 13 0.0 0.0 0.00 0.00 0.00 55 947.0
20260506210636 13 0.0 0.0 0.00 0.00 0.00 55 947.0
20260506210335 13 0.0 0.0 0.00 0.00 0.00 55 947.0
20260506210035 13 0.0 0.0 0.00 0.00 0.00 55 947.4
20260506205736 14 0.0 0.0 0.00 0.00 0.00 53 947.0
20260506205136 14 0.0 0.0 0.00 0.00 0.00 53 947.0
20260506204836 14 0.0 0.0 0.00 0.00 0.00 53 947.0
20260506204536 14 0.0 0.0 0.00 0.00 0.00 51 947.0
20260506204235 14 0.0 0.0 0.00 0.00 0.00 51 947.0
20260506203936 14 0.0 0.0 0.00 0.00 0.00 51 947.0
20260506203636 14 0.0 0.0 0.00 0.00 0.00 51 947.0
20260506203336 14 0.0 0.0 0.00 0.00 0.00 51 947.0
20260506203035 14 0.0 0.0 0.00 0.00 0.00 51 947.0
20260506202736 14 0.0 0.0 0.00 0.00 0.00 51 947.0
20260506202436 14 0.0 0.0 0.00 0.00 0.00 51 947.0
20260506202136 14 0.0 0.0 0.00 0.00 0.00 51 947.0
20260506201835 14 0.0 0.0 0.00 0.00 0.00 49 947.0
20260506201536 14 0.0 0.0 0.00 0.00 0.00 49 947.0
20260506201235 14 0.0 0.0 0.00 0.00 0.00 49 947.0
20260506200936 14 0.0 0.0 0.00 0.00 0.00 49 947.0
20260506200335 14 0.0 0.0 0.00 0.00 0.00 49 947.0
20260506200036 14 0.0 0.0 0.00 0.00 0.00 49 947.0
20260506195735 15 0.0 0.0 0.00 0.00 0.00 47 946.0
20260506195436 15 0.0 0.0 0.00 0.00 0.00 47 946.0
20260506194836 15 0.0 0.0 0.00 0.00 0.00 47 946.0
20260506194536 15 0.0 0.0 0.00 0.00 0.00 47 946.0
20260506194236 15 0.0 0.0 0.00 0.00 0.00 47 946.0
20260506193636 15 0.0 0.0 0.00 0.00 0.00 45 946.0
20260506193336 15 0.0 0.0 0.00 0.00 0.00 45 946.0
20260506193036 15 0.0 0.0 0.00 0.00 0.00 45 946.0
20260506192735 15 0.0 0.0 0.00 0.00 0.00 45 946.0
20260506192436 15 0.0 0.0 0.00 0.00 0.00 45 946.0
20260506192136 15 0.0 0.0 0.00 0.00 0.00 45 946.0
20260506191836 15 0.0 0.0 0.00 0.00 0.00 45 946.0
20260506191535 15 0.0 0.0 0.00 0.00 0.00 45 946.0
20260506191235 15 0.0 0.0 0.00 0.00 0.00 44 946.6
20260506190935 15 0.0 0.0 0.00 0.00 0.00 44 946.6
20260506190636 15 0.0 0.0 0.00 0.00 0.00 44 946.6
20260506190335 15 0.0 0.0 0.00 0.00 0.00 44 946.6
20260506190036 15 0.0 0.0 0.00 0.00 0.00 44 946.6
20260506185136 15 0.0 0.0 0.00 0.00 0.00 44 946.0
20260506184836 15 0.0 0.0 0.00 0.00 0.00 44 946.0
20260506183936 15 0.0 0.0 0.00 0.00 0.00 44 946.0
20260506183636 15 0.0 0.0 0.00 0.00 0.00 44 946.0
20260506183336 15 0.0 0.0 0.00 0.00 0.00 44 946.0
20260506183036 15 0.0 0.0 0.00 0.00 0.00 43 946.5
20260506182736 15 0.0 0.0 0.00 0.00 0.00 43 946.5
20260506182436 15 0.0 0.0 0.00 0.00 0.00 43 946.5
20260506182136 15 0.0 0.0 0.00 0.00 0.00 43 946.5
20260506181536 15 0.0 0.0 0.00 0.00 0.00 43 946.5
20260506181235 15 0.0 0.0 0.00 0.00 0.00 43 946.5
20260506180636 16 0.0 0.0 0.00 0.00 0.00 43 946.0
20260506180036 16 0.0 0.0 0.00 0.00 0.00 43 946.0
20260506175736 16 0.0 0.0 0.00 0.00 0.00 43 946.0
20260506175435 16 0.0 0.0 0.00 0.00 0.00 43 946.0
20260506175136 16 0.0 0.0 0.00 0.00 0.00 43 946.0
20260506174836 16 0.0 0.0 0.00 0.00 0.00 43 946.0
20260506174236 16 0.0 0.0 0.00 0.00 0.00 42 946.6
20260506173935 16 0.0 0.0 0.00 0.00 0.00 42 946.6
20260506173335 16 0.0 0.0 0.00 0.00 0.00 42 946.6
20260506173035 16 0.0 0.0 0.00 0.00 0.00 42 946.6
20260506172736 16 0.0 0.0 0.00 0.00 0.00 42 946.6
20260506172136 16 0.0 0.0 0.00 0.00 0.00 42 946.6
20260506171836 16 0.0 0.0 0.00 0.00 0.00 42 946.6
20260506171536 16 0.0 0.0 0.00 0.00 0.00 41 946.0
20260506171236 16 0.0 0.0 0.00 0.00 0.00 41 946.0
20260506170936 16 0.0 0.0 0.00 0.00 0.00 40 946.0
20260506170636 16 0.0 0.0 0.00 0.00 0.00 40 946.0
20260506170335 16 0.0 0.0 0.00 0.00 0.00 40 946.0
20260506170036 16 0.0 0.0 0.00 0.00 0.00 40 946.0
20260506165735 16 0.0 0.0 0.00 0.00 0.00 40 946.0
20260506165435 16 0.0 0.0 0.00 0.00 0.00 40 946.0
20260506165136 16 0.0 0.0 0.00 0.00 0.00 40 946.0
20260506164836 16 0.0 0.0 0.00 0.00 0.00 40 946.0
20260506164535 16 0.0 0.0 0.00 0.00 0.00 40 946.0
20260506164236 16 0.0 0.0 0.00 0.00 0.00 40 946.0
20260506163935 17 0.0 0.0 0.00 0.00 0.00 40 946.8
20260506163636 17 0.0 0.0 0.00 0.00 0.00 40 946.8
20260506163335 17 0.0 0.0 0.00 0.00 0.00 40 946.8
20260506163035 17 0.0 0.0 0.00 0.00 0.00 40 946.8
20260506162736 17 0.0 0.0 0.00 0.00 0.00 40 946.8
20260506162435 17 0.0 0.0 0.00 0.00 0.00 39 946.0
20260506162135 17 0.0 0.0 0.00 0.00 0.00 39 946.0
20260506161836 17 0.0 0.0 0.00 0.00 0.00 39 946.0
20260506161536 17 0.0 0.0 0.00 0.00 0.00 39 946.0
20260506161236 17 0.0 0.0 0.00 0.00 0.00 39 946.0
20260506160935 17 0.0 0.0 0.00 0.00 0.00 39 946.0
20260506160635 17 0.0 0.0 0.00 0.00 0.00 39 946.0
20260506160035 17 0.0 0.0 0.00 0.00 0.00 39 946.0
20260506155736 17 0.0 0.0 0.00 0.00 0.00 39 946.0
20260506155436 18 0.0 0.0 0.00 0.00 0.00 39 947.1
20260506155136 18 0.0 0.0 0.00 0.00 0.00 39 947.1
20260506154536 18 0.0 0.0 0.00 0.00 0.00 39 947.1
20260506154236 18 0.0 0.0 0.00 0.00 0.00 39 947.1
20260506153936 18 0.0 0.0 0.00 0.00 0.00 39 947.1
20260506153635 18 0.0 0.0 0.00 0.00 0.00 39 947.1
20260506152735 18 0.0 0.0 0.00 0.00 0.00 38 947.0
20260506152436 18 0.0 0.0 0.00 0.00 0.00 38 947.0
20260506152135 18 0.0 0.0 0.00 0.00 0.00 38 947.0
20260506151836 18 0.0 0.0 0.00 0.00 0.00 38 947.0
20260506151536 18 0.0 0.0 0.00 0.00 0.00 38 947.0
20260506151236 17 0.0 0.0 0.00 0.00 0.00 39 947.0
20260506150936 17 0.0 0.0 0.00 0.00 0.00 39 947.0
20260506150635 17 0.0 0.0 0.00 0.00 0.00 39 947.0
20260506150335 17 0.0 0.0 0.00 0.00 0.00 40 947.0
20260506150036 17 0.0 0.0 0.00 0.00 0.00 40 947.0
20260506145736 16 0.0 0.0 0.00 0.00 0.00 41 947.0
20260506145436 16 0.0 0.0 0.00 0.00 0.00 41 947.0
20260506144836 16 0.0 0.0 0.00 0.00 0.00 41 947.0
20260506144536 16 0.0 0.0 0.00 0.00 0.00 41 947.0
20260506144236 16 0.0 0.0 0.00 0.00 0.00 41 947.0
20260506143935 16 0.0 0.0 0.00 0.00 0.00 41 947.0
20260506143635 16 0.0 0.0 0.00 0.00 0.00 41 947.0
20260506143336 16 0.0 0.0 0.00 0.00 0.00 41 947.0
20260506143036 16 0.0 0.0 0.00 0.00 0.00 41 947.0
20260506142436 16 0.0 0.0 0.00 0.00 0.00 41 947.0
20260506141835 17 0.0 0.0 0.00 0.00 0.00 41 948.0
20260506141535 17 0.0 0.0 0.00 0.00 0.00 41 948.0
20260506141236 17 0.0 0.0 0.00 0.00 0.00 41 948.0
20260506140935 17 0.0 0.0 0.00 0.00 0.00 41 948.0
20260506140636 17 0.0 0.0 0.00 0.00 0.00 41 948.0
20260506140335 16 0.0 0.0 0.00 0.00 0.00 42 948.0
20260506140036 16 0.0 0.0 0.00 0.00 0.00 42 948.0
20260506135436 16 0.0 0.0 0.00 0.00 0.00 42 948.0
20260506135135 16 0.0 0.0 0.00 0.00 0.00 42 948.0
20260506134536 16 0.0 0.0 0.00 0.00 0.00 42 948.0
20260506134236 16 0.0 0.0 0.00 0.00 0.00 42 948.4
20260506133636 16 0.0 0.0 0.00 0.00 0.00 42 948.0
20260506133336 16 0.0 0.0 0.00 0.00 0.00 42 948.0
20260506133036 16 0.0 0.0 0.00 0.00 0.00 42 948.0
20260506132736 16 0.0 0.0 0.00 0.00 0.00 42 948.0
20260506132435 16 0.0 0.0 0.00 0.00 0.00 42 948.0
20260506132135 16 0.0 0.0 0.00 0.00 0.00 42 948.0
20260506131836 16 0.0 0.0 0.00 0.00 0.00 42 948.0
20260506131536 16 0.0 0.0 0.00 0.00 0.00 43 948.0
20260506131235 16 0.0 0.0 0.00 0.00 0.00 43 948.0
20260506130935 16 0.0 0.0 0.00 0.00 0.00 43 948.0
20260506130635 16 0.0 0.0 0.00 0.00 0.00 43 948.0
20260506130036 16 0.0 0.0 0.00 0.00 0.00 43 948.0
20260506125736 16 0.0 0.0 0.00 0.00 0.00 43 948.0
20260506125435 16 0.0 0.0 0.00 0.00 0.00 42 948.0
20260506125136 16 0.0 0.0 0.00 0.00 0.00 42 948.0
20260506124835 16 0.0 0.0 0.00 0.00 0.00 41 948.0
20260506124536 17 0.0 0.0 0.00 0.00 0.00 41 948.0
20260506124236 17 0.0 0.0 0.00 0.00 0.00 41 948.0
20260506123635 16 0.0 0.0 0.00 0.00 0.00 41 948.0
20260506123336 16 0.0 0.0 0.00 0.00 0.00 43 949.0
20260506123036 16 0.0 0.0 0.00 0.00 0.00 43 949.0
20260506122735 16 0.0 0.0 0.00 0.00 0.00 43 949.0
20260506122435 15 0.0 0.0 0.00 0.00 0.00 44 949.0
20260506122135 15 0.0 0.0 0.00 0.00 0.00 44 949.0
20260506121836 15 0.0 0.0 0.00 0.00 0.00 44 949.0
20260506121536 15 0.0 0.0 0.00 0.00 0.00 44 949.0
20260506121236 15 0.0 0.0 0.00 0.00 0.00 44 949.0
20260506120936 15 0.0 0.0 0.00 0.00 0.00 43 949.0
20260506120636 15 0.0 0.0 0.00 0.00 0.00 43 949.0
20260506120336 15 0.0 0.0 0.00 0.00 0.00 43 949.0
20260506120035 15 0.0 0.0 0.00 0.00 0.00 43 949.0
20260506115736 16 0.0 0.0 0.00 0.00 0.00 43 949.0
20260506115436 16 0.0 0.0 0.00 0.00 0.00 43 949.0
20260506115136 16 0.0 0.0 0.00 0.00 0.00 43 949.0
20260506114536 16 0.0 0.0 0.00 0.00 0.00 43 949.0
20260506114236 16 0.0 0.0 0.00 0.00 0.00 43 949.0
20260506113936 16 0.0 0.0 0.00 0.00 0.00 43 949.0
20260506113635 16 0.0 0.0 0.00 0.00 0.00 43 949.0
20260506113336 16 0.0 0.0 0.00 0.00 0.00 43 949.0
20260506113036 16 0.0 0.0 0.00 0.00 0.00 43 949.0
20260506112735 16 0.0 0.0 0.00 0.00 0.00 43 949.0
20260506112436 15 0.0 0.0 0.00 0.00 0.00 44 949.0
20260506112135 15 0.0 0.0 0.00 0.00 0.00 44 949.0
20260506111836 15 0.0 0.0 0.00 0.00 0.00 44 949.0
20260506111536 15 0.0 0.0 0.00 0.00 0.00 44 949.0
20260506111236 15 0.0 0.0 0.00 0.00 0.00 44 949.0
20260506110936 16 0.0 0.0 0.00 0.00 0.00 42 949.0
20260506110636 16 0.0 0.0 0.00 0.00 0.00 42 949.0
20260506110336 16 0.0 0.0 0.00 0.00 0.00 43 949.0
20260506110036 16 0.0 0.0 0.00 0.00 0.00 43 949.0
20260506105735 15 0.0 0.0 0.00 0.00 0.00 44 949.9
20260506105436 15 0.0 0.0 0.00 0.00 0.00 44 949.0
20260506105135 15 0.0 0.0 0.00 0.00 0.00 45 949.0
20260506104836 14 0.0 0.0 0.00 0.00 0.00 45 949.0
20260506104536 14 0.0 0.0 0.00 0.00 0.00 45 949.0
20260506104236 14 0.0 0.0 0.00 0.00 0.00 45 949.0
20260506103936 15 0.0 0.0 0.00 0.00 0.00 44 949.0
20260506103635 15 0.0 0.0 0.00 0.00 0.00 44 949.0
20260506103335 15 0.0 0.0 0.00 0.00 0.00 44 949.0
20260506103036 15 0.0 0.0 0.00 0.00 0.00 44 949.0
20260506102136 16 0.0 0.0 0.00 0.00 0.00 41 949.0
20260506101836 16 0.0 0.0 0.00 0.00 0.00 40 949.0
20260506101536 17 0.0 0.0 0.00 0.00 0.00 39 949.0
20260506101236 17 0.0 0.0 0.00 0.00 0.00 39 949.0
20260506100936 17 0.0 0.0 0.00 0.00 0.00 39 949.0
20260506100336 19 0.0 0.0 0.00 0.00 0.00 35 949.0
20260506100036 20 0.0 0.0 0.00 0.00 0.00 35 949.0
20260506095136 23 0.0 0.0 0.00 0.00 0.00 29 949.0
20260506094836 27 0.0 0.0 0.00 0.00 0.00 23 949.0
20260506094536 28 0.0 0.0 0.00 0.00 0.00 24 949.0
20260506094236 30 0.0 0.0 0.00 0.00 0.00 23 949.0
20260506093935 31 0.0 0.0 0.00 0.00 0.00 23 949.0
20260506093636 32 0.0 0.0 0.00 0.00 0.00 21 949.0
20260506093336 33 0.0 0.0 0.00 0.00 0.00 21 949.0
20260506093036 37 0.0 0.0 0.00 0.00 0.00 20 949.0
20260506092736 37 0.0 0.0 0.00 0.00 0.00 21 949.0
20260506092136 35 0.0 0.0 0.00 0.00 0.00 22 949.0
20260506091835 32 0.0 0.0 0.00 0.00 0.00 23 949.0
20260506091536 32 0.0 0.0 0.00 0.00 0.00 23 949.0
20260506090636 31 0.0 0.0 0.00 0.00 0.00 24 949.0
20260506090335 32 0.0 0.0 0.00 0.00 0.00 23 949.0
20260506085735 33 0.0 0.0 0.00 0.00 0.00 22 949.0
20260506085436 33 0.0 0.0 0.00 0.00 0.00 23 949.0
20260506085136 33 0.0 0.0 0.00 0.00 0.00 23 949.0
20260506084836 31 0.0 0.0 0.00 0.00 0.00 24 949.0
20260506084535 35 0.0 0.0 0.00 0.00 0.00 22 949.0
20260506084236 34 0.0 0.0 0.00 0.00 0.00 24 949.0
20260506083936 32 0.0 0.0 0.00 0.00 0.00 25 949.0
20260506083635 31 0.0 0.0 0.00 0.00 0.00 26 949.0
20260506083335 30 0.0 0.0 0.00 0.00 0.00 26 949.0
20260506083035 35 0.0 0.0 0.00 0.00 0.00 23 949.0
20260506082736 34 0.0 0.0 0.00 0.00 0.00 24 949.0
20260506082435 32 0.0 0.0 0.00 0.00 0.00 25 949.0
20260506082136 30 0.0 0.0 0.00 0.00 0.00 26 949.0
20260506081836 32 0.0 0.0 0.00 0.00 0.00 24 949.0
20260506081236 35 0.0 0.0 0.00 0.00 0.00 24 949.2
20260506080936 35 0.0 0.0 0.00 0.00 0.00 24 949.0
20260506080336 31 0.0 0.0 0.00 0.00 0.00 26 949.0
20260506073336 32 0.0 0.0 0.00 0.00 0.00 27 948.0
20260506072736 31 0.0 0.0 0.00 0.00 0.00 29 948.0
20260506072436 29 0.0 0.0 0.00 0.00 0.00 30 948.0
20260506072136 27 0.0 0.0 0.00 0.00 0.00 32 948.0
20260506071536 27 0.0 0.0 0.00 0.00 0.00 31 948.0
20260506071236 28 0.0 0.0 0.00 0.00 0.00 32 948.8
20260506070935 28 0.0 0.0 0.00 0.00 0.00 34 948.0
20260506070335 26 0.0 0.0 0.00 0.00 0.00 37 948.0